#timestamp,LO_Frequency,Hit,StdDev 
1514667615.8,286046998.7,N
1514667635.6,286046998.9,N
1514667655.4,286046999.2,N
1514667675.3,286046999.3,N
1514667695.1,286046997.6,N
1514667715.8,286046996.4,N
1514667735.7,286046994.4,Y
1514667755.5,286046995.6,P
1514667775.4,286046996.2,N
1514667795.2,286046993.5,P
1514667815.0,286046993.5,Y
1514667815.9,286046993.5,P
1514667835.8,286046998.6,N
1514667855.6,286046998.9,N
1514667875.5,286046996.7,N
1514667895.3,286046997.0,N
1514667915.1,286046997.2,N
1514667965.9,286046996.3,E
1514667975.8,286046998.0,N
1514667995.7,286046998.7,P
1514668015.5,286047001.2,P
1514668035.3,286047002.5,N
1514668055.2,286047000.0,N
1514668075.0,286047002.2,N
1514668075.9,286047002.2,N
1514668095.8,286047001.4,N
1514668115.6,286047001.8,N
1514668135.4,286047002.5,N
1514668155.3,286046998.3,N
1514668175.1,286046998.4,N
1514668195.8,286046998.5,N
1514668215.7,286046998.4,N
1514668235.5,286046999.2,N
1514668255.4,286046997.3,N
1514668275.2,286046997.6,N
1514668295.0,286046997.5,N
1514668295.9,286046997.5,N
1514668315.8,286046995.2,N
1514668335.6,286046995.1,N
1514668355.5,286046999.3,N
1514668375.3,286046999.0,N
1514668395.1,286046998.7,N
1514668415.9,286046999.4,N
1514668435.7,286046997.3,N
1514668455.5,286046995.9,N
1514668475.4,286046996.1,N
1514668495.2,286046996.1,N
1514668515.1,286046996.1,N
1514668516.0,286046996.1,N
1514668565.8,286046997.9,E
1514668575.8,286046998.9,N
1514668595.6,286046999.0,P
1514668615.4,286046998.3,P
1514668635.3,286047000.7,N
1514668655.1,286047001.0,N
1514668675.8,286046999.7,N
1514668695.7,286047000.5,N
1514668715.5,286047002.4,N
1514668735.4,286047003.8,N
1514668755.2,286047002.1,N
1514668775.0,286047004.4,N
1514668775.9,286047004.4,N
1514668795.8,286047005.9,N
1514668815.6,286047004.1,N
1514668835.5,286047002.0,N
1514668855.3,286047001.6,N
1514668875.1,286047003.9,N
1514668895.9,286047001.6,N
1514668915.7,286047004.0,N
1514668935.5,286047001.4,N
1514668955.4,286047005.7,N
1514668975.2,286047003.7,N
1514668995.1,286047004.0,N
1514668996.0,286047004.0,N
1514669015.8,286047001.9,N
1514669035.6,286047000.2,N
1514669055.5,286047002.1,N
1514669075.3,286047001.5,N
1514669095.2,286047005.4,N
1514669115.9,286047005.4,N
1514669135.7,286047004.1,N
1514669155.6,286047001.4,N
1514669175.4,286047004.2,N
1514669195.3,286047003.1,N
1514669215.1,286047005.5,Y
1514669216.0,286047005.5,P
1514669235.8,286047011.9,P
1514669255.7,286047002.8,N
1514669275.5,286047000.6,N
1514669295.4,286047000.9,N
1514669315.2,286047000.4,N
1514669335.0,286046999.9,N
1514669335.9,286046999.9,N
1514669355.8,286047000.6,N
1514669375.6,286046998.1,N
1514669395.4,286047001.1,N
1514669415.3,286047000.9,N
1514669435.1,286047000.6,N
1514669455.9,286047000.4,N
1514669475.7,286047000.4,N
1514669495.5,286047000.4,N
1514669515.4,286047000.0,N
1514669535.2,286046999.7,N
1514669555.1,286047000.4,N
1514669556.0,286047000.4,N
1514669575.8,286047002.4,N
1514669595.6,286047001.1,N
1514669615.5,286047001.1,N
1514669635.3,286047001.0,N
1514669655.2,286047000.6,N
1514669675.9,286047002.4,N
1514669695.7,286046999.7,N
1514669715.6,286047002.4,N
1514669735.4,286047004.2,N
1514669755.2,286047001.4,N
1514669775.1,286047001.8,N
1514669776.0,286047001.8,N
1514669795.8,286046999.7,N
1514669815.7,286047000.2,N
1514669835.5,286047003.6,Y
1514669855.3,286047003.7,P
1514669875.2,286047002.2,N
1514669895.0,286047001.5,N
1514669895.9,286047001.5,N
1514669915.8,286047001.3,N
1514669935.6,286047004.2,Y
1514669955.4,286047002.5,P
1514669975.3,286047002.4,P
1514669995.1,286047000.1,N
1514670015.8,286047002.0,N
1514670035.7,286046999.8,N
1514670055.5,286047000.5,N
1514670075.4,286047000.3,N
1514670095.2,286047001.0,N
1514670115.0,286047001.0,N
1514670115.9,286047001.0,N
1514670135.8,286046999.2,N
1514670155.6,286046997.1,N
1514670175.5,286046999.2,N
1514670195.3,286046998.9,N
1514670215.1,286046996.5,N
1514670235.9,286046996.8,N
1514670255.7,286046998.3,N
1514670275.5,286046998.1,N
1514670295.4,286046998.7,N
1514670315.2,286047000.8,N
1514670335.1,286046998.1,N
1514670336.0,286046998.1,N
1514670355.8,286047000.4,N
1514670375.6,286046999.7,N
1514670395.5,286047001.9,N
1514670415.3,286047002.4,N
1514670435.1,286046999.8,N
1514670455.9,286047002.4,N
1514670475.7,286047002.4,N
1514670495.6,286047001.9,N
1514670515.4,286046999.8,N
1514670535.2,286047002.4,N
1514670555.1,286047001.2,N
1514670556.0,286047001.2,N
1514670575.8,286047000.2,N
1514670595.7,286047000.6,N
1514670615.5,286047000.0,N
1514670635.3,286047000.5,N
1514670655.2,286046999.7,N
1514670675.0,286047000.6,N
1514670675.9,286047000.6,N
1514670695.7,286046999.8,N
1514670715.6,286047002.1,N
1514670735.4,286046999.8,N
1514670755.3,286047000.0,N
1514670775.1,286047000.6,N
1514670776.0,286047000.6,N
1514670795.8,286047000.9,N
1514670815.7,286046998.6,N
1514670835.5,286046998.6,N
1514670855.4,286046998.6,N
1514670875.2,286046998.2,N
1514670895.0,286046998.1,N
1514670895.9,286046998.1,N
1514670915.8,286047001.1,N
1514670935.6,286046998.7,N
1514670955.4,286047000.6,N
1514670975.3,286047000.8,N
1514670995.1,286047000.9,N
1514671015.9,286046998.3,N
1514671035.7,286047000.5,N
1514671055.5,286046998.2,N
1514671075.4,286046998.3,N
1514671095.2,286047001.1,N
1514671115.1,286047000.7,N
1514671116.0,286047000.7,N
1514671135.8,286047001.2,N
1514671155.6,286046999.2,N
1514671175.5,286047000.0,N
1514671195.3,286046998.5,N
